STARLINK-1043 (44748 NORAD) Tracking and Keplerian Element Data

This shows tracking and keplerian element data for the satellite.

Feedback or suggestion? Click here.




ElementValue
Catalog44748
NameSTARLINK-1043
Epoch Orbit1035
Epoch Day17.91667824
Epoch Year2020
RAAN214.687
Inclination53.004
Eccentricity0.0001784
Argument of Perigee97.9216
Mean Anonmoly274.0954
Mean Motion15.05568577
Decay Rate0.000174
L11 44748U 19074AM 20017.91667824 .00017400 00000-0 12108-2 0 9997
L22 44748 53.0040 214.6870 0001784 97.9216 274.0954 15.05568577 10352

Live tracking and technical data element details for STARLINK-1043 (NORAD 44748). STARLINK-1043 can be tracked NOW for your location showing map with azimuth and elevation plus other details from your city location.

Track the satellite on the map from your city or location and see movement details for azimuth, elevation, latitude, longitude, range, height, and movement on the map or in text.







IsCatalogInMostPopularTable: catalog: 44748, numindb: 78
Update: records affected: 1



GetName: 44748 STARLINK-1043

Hit Count: updated at: Mon, 20 Jan 2020 02:57:20 GMT